Location: Newark
(25.0000°N, 73.5000°E)
Time: 23:13:45
(UTC+00:00)

deb Kosmos-249 - Visible Passes

Search period start: 24 June 2021 00:00
Search period end: 04 July 2021 00:00
Orbit: 576 x 1723 km, 62.3° (Epoch: 24 June)

Date Brightness Start Highest point End Pass type
(mag) Time Alt. Az. Time Alt. Az. Time Alt. Az.
24 Jun ? 18:19:00 20° ENE 18:19:00 20° ENE 18:20:59 10° NE visible
24 Jun ? 20:07:20 34° NW 20:07:20 34° NW 20:12:26 10° N visible
25 Jun ? 17:47:22 14° ENE 17:47:22 14° ENE 17:48:16 10° NE visible
25 Jun ? 19:35:42 40° NNW 19:35:42 40° NNW 19:40:31 10° NNE visible
26 Jun ? 19:03:59 44° N 19:03:59 44° N 19:08:28 10° NNE visible
27 Jun ? 18:32:11 42° NNE 18:32:11 42° NNE 18:36:21 10° NNE visible
27 Jun ? 20:20:29 13° WNW 20:21:29 13° NW 20:24:43 10° NNW visible
28 Jun ? 18:00:16 37° NE 18:00:16 37° NE 18:04:05 10° NNE visible
28 Jun ? 19:48:34 19° WNW 19:48:59 19° NW 19:53:44 10° NNW visible
29 Jun ? 17:28:13 32° NE 17:28:13 32° NE 17:31:43 10° NE visible
29 Jun ? 19:16:30 25° WNW 19:16:35 25° WNW 19:22:14 10° N visible
30 Jun ? 16:55:57 27° ENE 16:55:57 27° ENE 16:59:13 10° NE visible
30 Jun ? 18:44:14 34° WNW 18:44:14 34° WNW 18:50:30 10° N visible
01 Jul ? 16:23:25 24° ENE 16:23:25 24° ENE 16:26:31 10° NE visible
01 Jul ? 18:11:40 45° WNW 18:11:53 45° WNW 18:18:36 10° NNE visible
02 Jul ? 15:50:24 21° E 15:50:24 21° E 15:53:36 10° ENE visible
02 Jul ? 17:38:36 57° W 17:39:34 60° WNW 17:46:36 10° NNE visible
03 Jul ? 15:16:22 18° ESE 15:16:22 18° ESE 15:20:17 10° ENE visible
03 Jul ? 17:04:26 48° SW 17:07:15 79° WNW 17:14:28 10° NNE visible
03 Jul ? 18:56:26 10° WNW 18:59:38 13° NW 19:02:32 10° NNW visible
